{"data":{"norad_id":59586,"epoch":"2026-05-24T16:52:54.516864Z","epoch_age_seconds":107503,"freshness":"FRESH","line1":"1 59586U 24076Y   26144.70340876  .00077736  00000+0  16641-2 0  9993","line2":"2 59586  42.9913 248.5642 0018027   2.9406 357.1555 15.43682795118701","mean_motion":15.43682795,"eccentricity":0.0018027,"inclination_deg":42.9913,"raan_deg":248.5642,"arg_perigee_deg":2.9406,"mean_anomaly_deg":357.1555,"bstar":0.0016641,"rev_number":11870,"period_min":93.283413189819,"perigee_km":422.96867531757,"apogee_km":447.53366502631,"semimajor_km":6813.3881701719,"source":"CELESTRAK","updated_at":"2026-05-25T13:38:18.989387Z"}}